Flag for Germany Weather past 2 weeks in Göppingen, Baden-Württemberg, Germany

Now
67 °F

Partly sunny.


Feels Like: 67 °F
Forecast: 56 / 83 °F
Wind: 3 mph from East

Location: Stoetten

Current Time: Aug 1, 2014 at 4:07:00 PM

Latest Report: Aug 1, 2014 at 3:00 PM


Visibility: 44 mi

Pressure: 29.84 "Hg

Humidity: 65%

Dew point: 55 °F

Location of GöppingenLocation

Historic Weather in Göppingen — Graph

°F

Göppingen temperature yesterday

Maximum temperature yesterday: 70 °F (at 7:00 PM)
Minimum temperature yesterday: 58 °F (at 5:00 AM)
Average temperature yesterday: 63 °F

Past Weeks' High & Low Weather Summary

 TemperatureHumidityPressure
High85 °F (Jul 19, 5:00 PM)100% (Jul 21, 12:00 AM)30.14 "Hg (Jul 21, 12:00 AM)
Low57 °F (Jul 29, 4:00 AM)31% (Jul 18, 4:00 PM)29.72 "Hg (Jul 28, 6:00 PM)
Average65 °F76%29.90 "Hg
* Reported Jul 17 3:00 PM — Aug 1 3:00 PM, Göppingen, Weather by CustomWeather, © 2014

Note: Actual official high and low records may vary slightly from our data, if they occured in-between our weather recording intervals... More about our weather records

Advertising

Göppingen weather history for previous 24 hours

 ConditionsComfort  
Time TempWeatherWind HumidityBarometerVisibility
3:00 PM
Aug 1
67 °FPartly sunny.3 mph65%29.84 "Hg43 mi
2:00 PM67 °FOvercast.5 mph66%29.85 "Hg40 mi
1:00 PM67 °FOvercast.5 mph67%29.85 "Hg34 mi
12:00 PM67 °FPartly sunny.5 mph71%29.86 "Hg34 mi
11:00 AM65 °FPartly sunny.6 mph72%29.88 "Hg28 mi
10:00 AM65 °FPartly sunny.5 mph78%29.88 "Hg25 mi
9:00 AM63 °FPartly sunny.6 mph83%29.88 "Hg22 mi
8:00 AM61 °FScattered clouds.5 mph85%29.90 "Hg19 mi
7:00 AM59 °FPassing clouds.5 mph85%29.91 "Hg19 mi
6:00 AM59 °FScattered clouds.3 mph85%29.92 "Hg19 mi
5:00 AM59 °FClear.3 mph86%29.93 "Hg9 mi
4:00 AM60 °FPassing clouds.3 mph81%29.93 "Hg16 mi
3:00 AM60 °FClear.2 mph84%29.94 "Hg11 mi
2:00 AM60 °FClear.2 mph86%29.95 "Hg11 mi
1:00 AM61 °FClear.3 mph84%29.95 "Hg12 mi
12:00 AM62 °FClear.3 mph80%29.95 "Hg16 mi
11:00 PM
Jul 31
62 °FClear.2 mph79%29.96 "Hg18 mi
10:00 PM62 °FClear.2 mph81%29.95 "Hg17 mi
9:00 PM64 °FClear.2 mph77%29.93 "Hg19 mi
8:00 PM67 °FPartly sunny.2 mph69%29.92 "Hg25 mi
7:00 PM70 °FPassing clouds.1 mph62%29.91 "Hg34 mi
6:00 PM69 °FScattered clouds.1 mph61%29.93 "Hg34 mi
5:00 PM67 °FPartly sunny.2 mph68%29.94 "Hg40 mi
4:00 PM67 °FPartly sunny.3 mph62%29.94 "Hg40 mi
Weather by CustomWeather, © 2014

See weather overviewHow to use our weather pages